Simultaneous Nadir Overpasses (SNOs) Predictions

Prediction of SNOs near US between AQUA and NPP Satellite Orbit:

Table of predicted SNOs near US for the next 10.0 days since TLE Epoch: 3/25/2016
Index Date (AQUA) Time (AQUA) AQUA Lat,Lon Date (NPP) Time (NPP) NPP Lat,Lon Distance(km) Time Diff (sec)
1 03/26/2016 09:24:38 22.20,-113.84 03/26/2016 09:16:54 22.28,-114.07 24.58 464
2 03/29/2016 06:31:01 46.71, -65.03 03/29/2016 06:31:15 47.05, -66.81 140.39 14
3 03/29/2016 08:09:00 49.92, -88.47 03/29/2016 08:11:47 50.38, -90.76 170.80 167
4 03/29/2016 09:47:53 49.93,-113.19 03/29/2016 09:53:15 50.49,-116.08 215.20 322
5 03/31/2016 19:07:12 49.98, -92.68 03/31/2016 19:02:04 49.67, -94.29 120.82 308
6 03/31/2016 20:46:05 49.97,-117.40 03/31/2016 20:43:32 49.56,-119.62 166.07 153
7 04/03/2016 10:12:49 27.31,-125.00 04/03/2016 10:06:30 26.50,-125.70 113.94 379




NCC Satellite Simultaneous Nadir Overpasses (SNOs) Prediction Service
